Wind_Speed
13 10 4 3 4 5 2 4 6 15 10 12 21 16 9 9 3 4 25 20 15 21 20 17 16 14 12 11 9 9 9 10 10 10 10 11 11 11 11 11 11 11 11 11 11 11 12 12 12
12 8 8 5 3 4 3 8 10 16 14 14 28 25 19 6 16 27 24 17 15 20 19 18 15 13 11 10 9 10 10 10 10 10 10 10 9 9 9 9 10 10 9 9 10 10 10 10 11
12 7 5 4 4 5 5 10 13 23 31 6 9 17 9 15 23 21 20 16 18 19 19 17 14 12 11 10 10 11 10 11 11 11 10 10 10 10 10 10 11 11 12 12 12 12 12 11 11
7 4 7 2 8 1 9 8 16 5 23 14 21 11 12 19 22 25 20 12 15 16 16 16 13 12 12 11 11 11 11 12 12 12 10 10 10 10 11 11 12 12 12 12 12 12 12 12 12
5 6 2 4 9 7 5 8 17 8 0 26 21 11 12 18 24 21 20 18 12 16 17 16 14 13 12 12 12 13 13 12 11 10 10 10 10 10 11 11 11 11 11 12 12 12 12 13 13
5 4 3 5 6 11 4 23 23 14 22 27 25 19 11 26 26 25 22 16 13 13 17 17 15 14 13 14 14 13 11 10 9 9 9 9 9 9 11 12 13 14 14 14 14 13 14 14 13
10 2 7 11 15 11 12 29 14 19 24 21 32 13 20 25 23 23 25 21 11 16 18 17 16 15 15 14 13 11 9 8 8 9 8 8 9 10 11 14 14 15 14 13 14 13 13 11 10
17 2 9 15 9 4 7 31 29 14 10 36 35 9 22 31 25 28 29 18 8 10 16 17 16 15 14 13 11 8 6 6 7 7 6 7 10 12 12 16 16 18 16 15 15 14 11 10 6
22 3 9 15 8 6 5 11 16 21 15 11 12 30 34 29 25 31 30 20 12 13 21 21 17 14 13 10 8 6 6 5 6 5 5 7 7 7 7 9 11 14 13 13 15 14 12 15 16
4 4 10 16 10 5 9 7 20 16 26 19 30 29 28 29 27 30 32 26 22 19 18 20 15 13 14 10 6 5 4 5 7 4 4 2 6 8 8 8 8 10 10 11 7 10 14 14 18
18 9 14 24 26 26 9 20 19 26 11 24 26 25 23 24 26 28 28 24 29 26 23 18 16 13 9 10 6 5 2 6 4 4 4 4 7 8 8 8 8 9 11 11 8 15 14 17 13
7 23 25 29 30 26 4 2 9 29 21 36 40 34 31 24 27 28 25 26 37 36 27 22 18 15 12 10 12 9 8 8 6 3 3 5 7 8 9 9 8 11 13 12 14 13 16 13 12
8 14 31 32 28 27 15 6 9 16 46 36 35 34 34 29 28 28 26 27 35 37 27 26 25 22 19 19 16 14 10 7 7 3 4 6 8 6 7 8 9 10 12 14 15 13 13 10 13
19 16 25 24 28 23 8 4 0 21 36 32 34 32 34 31 30 30 30 30 32 27 27 26 25 22 19 20 18 13 9 8 3 3 4 7 7 5 5 9 11 7 10 10 9 11 9 11 16
21 9 10 12 11 10 21 3 7 38 33 35 30 31 18 28 33 33 32 29 26 25 24 23 22 22 21 20 15 12 7 5 3 4 6 7 6 4 7 11 8 8 6 3 3 5 7 11 13
8 5 6 10 8 17 10 7 9 39 37 29 36 24 24 32 32 36 36 34 28 27 26 22 19 19 16 14 13 10 11 8 3 4 4 7 6 5 8 11 5 4 1 3 2 5 7 6 10
6 6 8 11 16 11 10 7 8 21 37 36 44 55 53 45 23 40 36 38 36 33 31 24 21 17 15 17 15 12 13 8 6 5 2 5 7 5 8 9 4 6 7 4 4 12 6 7 2
7 6 9 9 13 9 9 8 9 17 18 46 44 53 40 33 10 35 41 40 38 35 29 23 21 18 18 17 15 14 13 10 7 3 1 5 7 4 5 6 5 8 10 6 2 5 6 12 9
9 6 8 9 13 2 9 2 6 11 5 32 33 29 26 41 43 31 45 43 40 35 31 27 22 21 19 19 17 15 14 9 6 1 3 4 6 4 1 4 5 8 11 9 4 6 8 13 14
8 8 11 11 9 3 3 5 6 9 7 30 28 29 33 29 15 27 45 44 42 38 34 30 25 21 18 15 12 10 10 9 4 1 2 6 6 4 1 6 5 6 8 7 7 8 12 12 16
6 6 8 9 11 9 4 7 9 10 16 18 27 27 43 47 49 55 46 45 44 39 34 30 25 21 18 20 18 19 18 11 6 4 3 5 5 3 6 6 4 3 4 9 7 6 7 7 12
5 10 8 12 5 4 3 6 8 8 11 8 20 20 51 57 46 42 53 48 41 34 29 27 26 21 21 21 19 25 18 13 10 5 1 4 3 4 5 6 3 6 9 9 7 5 4 6 11
8 6 6 7 8 7 12 3 8 10 8 8 11 31 29 36 39 52 56 46 35 31 27 27 27 23 26 22 22 22 16 13 12 8 4 1 2 3 5 6 5 5 6 10 11 13 6 10 11
7 7 9 7 2 5 7 4 10 9 7 9 9 25 31 34 44 40 34 28 22 23 22 25 24 25 24 22 20 22 16 17 16 12 6 4 5 4 5 2 3 5 3 6 9 10 11 8 8
3 1 3 5 1 8 6 6 8 10 27 26 7 10 14 14 45 40 35 26 9 26 21 24 27 27 26 24 21 22 19 17 15 10 6 3 4 3 3 1 1 4 2 8 6 7 9 8 5
6 5 5 3 5 6 6 3 4 21 30 46 46 42 39 27 23 29 26 18 19 24 24 26 28 28 28 29 25 24 23 19 13 9 7 4 7 6 6 4 4 2 6 2 3 5 6 7 8
7 4 2 7 6 4 2 9 17 22 21 24 23 33 35 18 13 12 9 17 28 28 31 32 29 27 27 31 28 28 24 21 15 14 15 16 10 10 7 5 5 3 7 5 3 1 5 8 5
5 2 6 5 2 7 5 5 2 10 10 15 13 18 26 26 18 18 26 31 23 26 32 31 27 26 27 26 27 25 21 18 17 13 15 16 14 10 9 7 5 3 3 6 6 4 2 6 4
8 3 6 3 2 3 3 2 6 2 6 4 9 13 16 15 9 7 24 26 21 25 25 27 23 24 22 23 26 22 22 19 17 14 14 16 17 14 12 7 4 3 2 7 7 4 3 1 3
7 3 4 5 6 1 3 6 8 8 8 11 11 8 15 13 5 8 20 10 13 17 26 27 22 22 24 26 27 24 25 22 19 16 17 14 13 16 12 7 6 5 4 5 6 7 2 6 6
Wind_Direction
311 324 350 116 75 67 128 235 281 279 299 42 85 93 90 71 135 152 146 156 141 144 143 145 142 137 128 119 111 101 91 81 74 67 61 60 57 52 44 37 29 22 17 14 9 1 355 350 348
300 320 299 264 158 123 222 202 241 253 275 104 93 93 78 73 102 126 132 130 141 144 146 146 141 133 127 118 108 98 89 83 78 74 71 68 60 50 38 27 18 13 4 1 1 357 354 349 346
291 281 240 179 192 208 172 225 213 249 274 193 111 88 74 123 121 136 133 131 137 141 147 141 139 136 124 115 107 99 93 86 79 72 62 50 35 26 16 9 2 357 352 350 347 346 343 341 339
309 267 245 180 261 153 174 210 230 246 275 117 111 79 101 137 131 135 144 157 144 132 143 139 139 129 127 123 113 106 96 87 70 58 45 35 21 12 6 2 357 356 353 350 346 342 338 333 332
309 259 258 278 259 150 212 260 258 209 269 108 104 117 117 135 138 139 154 164 143 139 150 142 136 135 128 118 107 99 89 79 68 51 31 20 18 20 23 23 14 8 0 354 346 340 334 329 327
260 248 327 277 293 168 208 162 207 223 127 112 111 122 118 140 143 148 163 174 152 143 151 142 140 136 126 117 109 101 92 78 59 43 34 37 47 43 38 28 14 5 356 351 342 339 333 328 324
228 294 262 284 273 191 186 195 194 208 151 136 135 123 140 150 159 158 170 163 146 144 151 144 138 130 124 118 112 104 93 78 61 53 47 38 39 39 26 18 360 3 358 357 357 0 354 348 353
257 171 285 272 294 301 306 184 198 208 119 141 136 145 163 163 161 155 164 158 127 135 146 135 130 127 123 119 117 112 99 77 56 48 40 37 27 27 13 3 353 6 15 9 6 18 7 347 333
259 292 262 272 293 233 259 120 134 149 116 133 192 154 152 159 160 153 155 147 154 143 135 129 117 116 120 108 108 103 81 61 47 50 51 31 37 20 5 355 350 5 10 0 7 356 345 342 341
269 244 253 263 282 292 288 228 140 105 82 63 97 125 147 158 167 159 155 161 169 167 147 144 123 116 125 86 79 104 74 38 39 55 77 34 27 11 359 8 343 357 343 338 16 338 348 34 31
257 251 270 278 289 297 217 121 145 99 70 107 112 134 151 168 175 171 169 184 171 172 162 148 136 130 130 103 120 112 343 321 25 15 42 19 18 10 13 23 2 351 347 1 358 11 43 38 15
234 259 258 271 280 293 256 3 177 141 166 154 155 147 163 189 188 179 175 176 168 171 166 155 147 148 146 144 156 182 259 288 315 19 33 13 14 18 28 25 3 353 3 17 25 42 43 24 7
237 251 259 267 276 286 292 337 98 123 150 158 156 162 167 189 196 182 175 166 166 166 167 159 158 168 169 172 178 208 236 261 309 2 15 12 22 41 28 360 351 357 26 35 49 36 39 22 359
269 263 258 268 275 287 300 224 314 167 163 177 181 166 166 190 196 177 168 162 163 167 167 169 176 185 198 191 199 217 226 249 283 318 20 26 38 53 6 357 9 28 39 30 44 51 38 25 31
292 296 308 285 269 275 290 277 252 175 172 162 161 161 177 194 200 185 182 170 172 170 176 182 188 197 199 200 196 189 203 223 283 314 14 31 46 27 8 15 37 57 48 3 60 96 74 35 24
300 299 279 282 276 269 259 257 281 171 161 128 126 135 197 243 228 188 183 184 188 192 203 208 201 199 189 187 189 190 194 217 267 295 352 30 35 29 26 28 58 53 25 317 54 97 89 51 53
285 239 245 264 248 228 182 226 230 182 158 149 146 155 182 216 234 188 188 185 196 205 207 212 204 205 196 188 193 198 200 207 210 247 338 22 49 30 24 23 41 23 323 0 88 74 67 14 357
264 239 269 246 250 231 214 201 228 228 249 166 173 181 202 193 214 186 194 188 194 199 204 210 209 205 189 196 192 196 198 194 208 224 96 8 58 45 29 19 28 36 21 45 112 74 47 28 18
255 292 316 308 321 148 178 212 258 244 196 155 189 195 155 164 185 201 195 188 189 193 202 209 211 203 198 192 192 188 182 188 198 194 10 47 30 93 299 57 40 41 25 47 85 97 76 44 20
3 345 312 309 315 19 0 311 291 281 224 178 185 183 160 149 157 207 194 190 193 196 202 207 212 208 194 194 169 168 168 190 197 336 63 35 28 57 150 103 119 43 13 53 72 122 80 65 40
323 290 291 283 310 335 91 317 288 285 258 210 189 193 159 164 181 189 196 194 194 196 198 209 213 208 192 176 179 180 187 195 203 199 102 26 19 54 116 131 131 73 5 33 71 74 89 73 66
289 256 270 248 324 282 86 278 293 261 269 195 196 193 166 172 185 193 195 195 197 197 204 212 209 202 187 184 196 199 207 206 188 199 53 356 29 78 85 110 115 56 37 47 62 36 78 82 84
243 356 358 344 347 22 310 13 277 304 276 220 209 207 208 201 194 187 196 200 194 198 211 210 202 189 189 192 203 211 192 192 186 198 245 275 113 106 68 72 79 62 31 41 39 45 88 93 87
9 354 352 341 333 312 278 242 288 282 252 267 250 209 216 188 191 181 184 179 185 203 203 199 196 186 188 197 202 191 187 191 193 209 222 141 101 104 102 87 54 119 64 26 40 44 53 117 97
179 53 316 324 337 237 313 324 247 326 47 27 334 36 31 190 159 156 167 165 204 235 216 209 197 189 191 199 192 189 197 210 214 204 189 136 159 165 171 352 199 110 65 23 72 28 37 98 112
337 172 166 294 316 273 276 259 27 41 39 57 27 47 49 67 104 146 161 204 195 204 212 208 202 193 193 194 191 194 199 211 207 194 171 173 219 235 233 309 187 150 134 68 73 21 10 89 80
312 343 298 229 292 7 332 359 20 18 30 47 53 50 59 80 124 145 178 179 181 196 211 218 212 199 198 196 196 197 204 210 200 187 176 201 206 209 238 261 191 234 165 184 196 305 31 84 40
214 6 23 18 47 315 355 61 19 343 7 37 40 55 90 100 106 148 165 176 178 228 212 209 215 205 202 202 202 202 201 202 194 190 190 192 203 209 220 194 213 228 183 175 190 209 29 81 49
347 28 59 118 178 238 312 224 210 134 304 316 91 68 71 98 86 204 187 190 277 210 200 211 213 202 203 204 207 199 195 202 207 204 209 202 213 213 210 215 195 186 307 196 212 193 87 297 311
283 1 105 102 295 127 139 269 206 210 197 253 114 8 62 75 106 161 228 218 172 216 204 207 212 209 208 208 211 198 198 205 212 211 207 214 213 220 222 172 197 201 254 255 199 174 259 241 272
Height
1519 1521 1522 1523 1535 1544 1554 1544 1533 1524 1517 1504 1504 1504 1510 1511 1517 1531 1529 1531 1531 1533 1535 1538 1540 1541 1542 1544 1545 1546 1547 1547 1548 1549 1550 1550 1550 1551 1551 1551 1551 1550 1550 1550 1549 1548 1547 1546 1545
1518 1519 1521 1521 1534 1557 1549 1528 1528 1515 1510 1507 1509 1512 1513 1520 1517 1525 1528 1531 1531 1533 1535 1538 1540 1541 1542 1544 1545 1546 1547 1548 1549 1549 1551 1551 1552 1552 1552 1552 1552 1552 1551 1550 1550 1549 1548 1547 1546
1517 1519 1520 1519 1525 1539 1542 1522 1509 1510 1509 1505 1509 1513 1518 1524 1524 1525 1529 1530 1530 1534 1536 1537 1540 1541 1542 1544 1545 1546 1547 1548 1549 1550 1552 1553 1553 1553 1553 1552 1552 1552 1551 1550 1549 1548 1547 1546 1546
1515 1516 1515 1521 1524 1522 1517 1511 1506 1505 1503 1503 1509 1517 1524 1525 1525 1526 1528 1528 1531 1534 1536 1537 1540 1541 1543 1544 1545 1547 1548 1549 1551 1552 1553 1553 1554 1553 1553 1552 1552 1551 1550 1549 1548 1547 1546 1545 1544
1514 1514 1519 1518 1512 1513 1509 1502 1505 1503 1508 1505 1507 1521 1524 1527 1528 1528 1529 1530 1532 1533 1535 1537 1540 1542 1544 1546 1547 1548 1549 1551 1552 1553 1554 1554 1553 1553 1553 1552 1552 1551 1550 1549 1547 1546 1545 1544 1543
1514 1509 1525 1526 1506 1503 1503 1494 1493 1501 1505 1508 1512 1522 1527 1529 1531 1532 1528 1531 1533 1533 1536 1538 1540 1543 1546 1547 1548 1550 1551 1552 1553 1554 1554 1554 1553 1553 1553 1552 1552 1551 1549 1547 1546 1545 1543 1542 1541
1511 1513 1521 1513 1505 1506 1496 1488 1495 1497 1497 1505 1509 1520 1526 1529 1530 1531 1530 1533 1534 1534 1535 1538 1541 1543 1546 1547 1549 1551 1552 1553 1553 1553 1554 1553 1553 1553 1552 1551 1551 1550 1548 1546 1545 1543 1540 1539 1539
1507 1508 1514 1501 1504 1495 1480 1489 1497 1489 1493 1502 1502 1513 1520 1524 1527 1530 1529 1531 1534 1535 1536 1538 1541 1544 1546 1548 1550 1552 1553 1553 1553 1553 1553 1553 1553 1551 1551 1550 1550 1549 1547 1545 1543 1541 1539 1537 1537
1504 1514 1515 1501 1500 1487 1481 1487 1488 1495 1501 1502 1503 1504 1515 1524 1528 1530 1530 1532 1533 1535 1537 1539 1542 1544 1546 1549 1551 1552 1553 1554 1553 1552 1552 1552 1552 1552 1551 1550 1549 1548 1545 1543 1542 1539 1538 1537 1536
1502 1512 1502 1486 1489 1490 1483 1481 1486 1490 1497 1508 1510 1517 1523 1527 1529 1529 1529 1530 1530 1532 1537 1540 1541 1543 1546 1548 1550 1551 1552 1553 1553 1552 1552 1552 1551 1551 1550 1550 1548 1547 1544 1543 1542 1539 1538 1536 1534
1499 1504 1491 1483 1486 1484 1481 1479 1481 1494 1509 1510 1514 1520 1525 1530 1530 1529 1529 1528 1528 1531 1535 1539 1540 1543 1545 1547 1549 1549 1550 1550 1552 1552 1552 1551 1550 1549 1548 1547 1546 1545 1544 1542 1540 1538 1537 1536 1534
1501 1492 1488 1482 1482 1481 1483 1480 1476 1483 1492 1489 1502 1503 1510 1527 1529 1529 1528 1525 1527 1531 1534 1537 1540 1542 1545 1547 1549 1550 1550 1549 1550 1551 1551 1550 1548 1547 1546 1545 1544 1543 1542 1540 1539 1538 1537 1536 1535
1493 1488 1483 1480 1479 1478 1477 1475 1479 1484 1490 1491 1495 1498 1506 1522 1529 1529 1530 1526 1526 1529 1534 1536 1539 1542 1543 1546 1547 1548 1549 1549 1550 1550 1550 1548 1547 1545 1544 1544 1543 1542 1542 1541 1540 1539 1539 1536 1536
1486 1483 1480 1477 1475 1475 1477 1474 1475 1495 1486 1488 1495 1501 1507 1519 1526 1529 1529 1528 1526 1529 1532 1533 1536 1539 1541 1543 1544 1546 1547 1546 1549 1549 1549 1547 1545 1544 1542 1542 1542 1542 1541 1541 1540 1540 1539 1538 1536
1482 1485 1478 1475 1472 1472 1473 1476 1474 1482 1488 1488 1500 1511 1514 1520 1527 1528 1528 1526 1525 1530 1533 1532 1532 1536 1539 1541 1542 1544 1545 1544 1545 1547 1547 1546 1544 1542 1541 1542 1541 1542 1541 1540 1540 1540 1539 1538 1537
1488 1482 1497 1477 1471 1469 1473 1494 1472 1477 1484 1502 1499 1506 1518 1521 1526 1525 1523 1526 1527 1528 1530 1532 1532 1532 1537 1541 1540 1542 1543 1544 1541 1544 1546 1544 1542 1540 1540 1540 1541 1541 1540 1540 1539 1539 1539 1537 1537
1489 1504 1494 1484 1465 1466 1471 1482 1470 1477 1485 1495 1495 1499 1498 1510 1523 1519 1520 1516 1521 1523 1525 1528 1530 1531 1535 1538 1539 1541 1542 1543 1541 1543 1544 1543 1541 1538 1538 1540 1540 1541 1540 1539 1539 1538 1537 1537 1537
1505 1499 1490 1486 1465 1462 1468 1472 1466 1465 1467 1482 1491 1489 1486 1505 1523 1521 1521 1514 1515 1520 1521 1524 1528 1530 1532 1534 1537 1539 1540 1541 1541 1543 1543 1541 1540 1538 1538 1539 1539 1539 1538 1538 1539 1538 1538 1537 1535
1483 1485 1486 1471 1459 1455 1464 1467 1464 1462 1464 1477 1483 1474 1483 1495 1497 1517 1514 1511 1514 1515 1515 1518 1523 1527 1529 1531 1533 1536 1537 1539 1541 1541 1541 1540 1539 1539 1538 1539 1538 1538 1538 1538 1538 1538 1537 1537 1535
1481 1487 1488 1471 1461 1462 1464 1467 1461 1459 1460 1462 1460 1465 1480 1496 1511 1513 1512 1508 1506 1507 1511 1516 1521 1524 1526 1529 1532 1534 1536 1537 1540 1540 1540 1539 1538 1539 1539 1539 1538 1537 1538 1539 1539 1538 1537 1537 1536
1484 1489 1487 1485 1468 1463 1463 1475 1467 1456 1454 1456 1454 1455 1471 1473 1477 1487 1503 1504 1500 1499 1505 1513 1519 1524 1526 1527 1529 1534 1536 1537 1538 1539 1539 1538 1538 1539 1539 1540 1538 1539 1539 1539 1538 1538 1537 1537 1537
1495 1476 1476 1476 1483 1504 1472 1514 1476 1460 1455 1452 1451 1453 1465 1469 1475 1481 1489 1494 1493 1498 1507 1510 1516 1520 1525 1528 1533 1535 1534 1534 1535 1536 1536 1537 1537 1539 1539 1540 1540 1539 1540 1538 1539 1539 1538 1538 1538
1485 1473 1475 1477 1487 1493 1487 1504 1484 1460 1460 1452 1448 1446 1449 1456 1465 1469 1479 1479 1486 1496 1502 1509 1512 1516 1521 1527 1533 1537 1537 1533 1533 1534 1535 1537 1538 1539 1539 1540 1541 1540 1539 1539 1539 1539 1538 1539 1540
1471 1477 1482 1483 1492 1521 1495 1499 1488 1475 1460 1449 1444 1444 1446 1448 1453 1468 1477 1491 1502 1506 1498 1504 1512 1516 1521 1527 1532 1536 1537 1535 1534 1534 1534 1535 1537 1539 1539 1540 1541 1540 1541 1541 1540 1539 1540 1541 1541
1475 1489 1525 1529 1525 1522 1486 1493 1488 1465 1468 1459 1443 1449 1453 1450 1459 1469 1477 1486 1489 1500 1506 1503 1507 1513 1520 1524 1530 1534 1535 1536 1536 1535 1533 1533 1535 1536 1538 1539 1540 1541 1541 1541 1541 1540 1541 1541 1541
1482 1491 1522 1533 1530 1509 1475 1494 1495 1480 1481 1466 1472 1465 1469 1476 1480 1478 1477 1481 1483 1495 1503 1503 1508 1510 1516 1523 1526 1530 1532 1533 1533 1534 1531 1532 1535 1536 1536 1538 1539 1541 1541 1541 1541 1540 1541 1540 1541
1486 1502 1483 1505 1500 1511 1497 1492 1477 1482 1480 1475 1485 1482 1479 1481 1485 1489 1489 1486 1489 1486 1497 1500 1510 1512 1516 1520 1524 1527 1531 1532 1532 1532 1532 1532 1534 1537 1536 1536 1538 1540 1540 1540 1540 1540 1541 1541 1541
1481 1487 1509 1517 1532 1534 1511 1517 1515 1499 1494 1479 1484 1489 1486 1483 1487 1487 1486 1482 1476 1484 1495 1500 1511 1512 1517 1522 1526 1529 1532 1534 1535 1533 1533 1532 1533 1534 1536 1535 1536 1538 1538 1539 1539 1540 1541 1540 1541
1495 1501 1515 1518 1518 1530 1529 1522 1499 1493 1493 1486 1482 1488 1485 1487 1483 1492 1488 1488 1486 1492 1502 1507 1510 1513 1519 1522 1525 1527 1528 1532 1536 1536 1533 1533 1534 1534 1535 1534 1535 1536 1537 1538 1539 1540 1540 1540 1540
1486 1490 1504 1526 1521 1520 1524 1528 1483 1483 1478 1484 1479 1482 1483 1488 1494 1491 1494 1492 1494 1503 1507 1505 1507 1509 1514 1517 1522 1524 1526 1527 1536 1535 1532 1533 1533 1535 1535 1533 1534 1535 1536 1537 1538 1538 1539 1540 1539